Year,Month,Day,Hour,Minute,Value (Times are PST for temperature in C)
2016,08,19,00,00,17.90
2016,08,19,00,01,17.90
2016,08,19,00,02,17.90
2016,08,19,00,03,17.90
2016,08,19,00,04,17.80
2016,08,19,00,05,17.80
2016,08,19,00,06,17.80
2016,08,19,00,07,17.80
2016,08,19,00,08,17.80
2016,08,19,00,09,17.80
2016,08,19,00,10,17.80
2016,08,19,00,11,17.80
2016,08,19,00,12,17.80
2016,08,19,00,13,17.80
2016,08,19,00,14,17.70
2016,08,19,00,15,17.70
2016,08,19,00,16,17.70
2016,08,19,00,17,17.60
2016,08,19,00,18,17.60
2016,08,19,00,19,17.60
2016,08,19,00,20,17.60
2016,08,19,00,21,17.50
2016,08,19,00,22,17.50
2016,08,19,00,23,17.50
2016,08,19,00,24,17.50
2016,08,19,00,25,17.50
2016,08,19,00,26,17.60
2016,08,19,00,27,17.60
2016,08,19,00,28,17.60
2016,08,19,00,29,17.70
2016,08,19,00,30,17.70
2016,08,19,00,31,17.70
2016,08,19,00,32,17.70
2016,08,19,00,33,17.70
2016,08,19,00,34,17.70
2016,08,19,00,35,17.70
2016,08,19,00,36,17.70
2016,08,19,00,37,17.70
2016,08,19,00,38,17.70
2016,08,19,00,39,17.70
2016,08,19,00,40,17.60
2016,08,19,00,41,17.60
2016,08,19,00,42,17.50
2016,08,19,00,43,17.40
2016,08,19,00,44,17.40
2016,08,19,00,45,17.40
2016,08,19,00,46,17.40
2016,08,19,00,47,17.30
2016,08,19,00,48,17.30
2016,08,19,00,49,17.30
2016,08,19,00,50,17.20
2016,08,19,00,51,17.20
2016,08,19,00,52,17.20
2016,08,19,00,53,17.10
2016,08,19,00,54,17.10
2016,08,19,00,55,17.10
2016,08,19,00,56,17.10
2016,08,19,00,57,17.10
2016,08,19,00,58,17.00
2016,08,19,00,59,17.00
2016,08,19,01,00,17.00
2016,08,19,01,01,17.00
2016,08,19,01,02,16.90
2016,08,19,01,03,16.90
2016,08,19,01,04,16.90
2016,08,19,01,05,16.90
2016,08,19,01,06,16.90
2016,08,19,01,07,16.90
2016,08,19,01,08,16.90
2016,08,19,01,09,16.90
2016,08,19,01,10,16.90
2016,08,19,01,11,17.00
2016,08,19,01,12,17.00
2016,08,19,01,13,17.10
2016,08,19,01,14,17.20
2016,08,19,01,15,17.20
2016,08,19,01,16,17.20
2016,08,19,01,17,17.30
2016,08,19,01,18,17.30
2016,08,19,01,19,17.30
2016,08,19,01,20,17.40
2016,08,19,01,21,17.40
2016,08,19,01,22,17.40
2016,08,19,01,23,17.40
2016,08,19,01,24,17.50
2016,08,19,01,25,17.50
2016,08,19,01,26,17.50
2016,08,19,01,27,17.60
2016,08,19,01,28,17.60
2016,08,19,01,29,17.60
2016,08,19,01,30,17.70
2016,08,19,01,31,17.70
2016,08,19,01,32,17.70
2016,08,19,01,33,17.70
2016,08,19,01,34,17.70
2016,08,19,01,35,17.70
2016,08,19,01,36,17.70
2016,08,19,01,37,17.70
2016,08,19,01,38,17.80
2016,08,19,01,39,17.80
2016,08,19,01,40,17.80
2016,08,19,01,41,17.80
2016,08,19,01,42,17.80
2016,08,19,01,43,17.80
2016,08,19,01,44,17.80
2016,08,19,01,45,17.80
2016,08,19,01,46,17.70
2016,08,19,01,47,17.70
2016,08,19,01,48,17.70
2016,08,19,01,49,17.70
2016,08,19,01,50,17.70
2016,08,19,01,51,17.70
2016,08,19,01,52,17.70
2016,08,19,01,53,17.70
2016,08,19,01,54,17.70
2016,08,19,01,55,17.60
2016,08,19,01,56,17.60
2016,08,19,01,57,17.60
2016,08,19,01,58,17.60
2016,08,19,01,59,17.60
2016,08,19,02,00,17.60
2016,08,19,02,01,17.50
2016,08,19,02,02,17.50
2016,08,19,02,03,17.40
2016,08,19,02,04,17.40
2016,08,19,02,05,17.30
2016,08,19,02,06,17.30
2016,08,19,02,07,17.30
2016,08,19,02,08,17.30
2016,08,19,02,09,17.30
2016,08,19,02,10,17.30
2016,08,19,02,11,17.30
2016,08,19,02,12,17.30
2016,08,19,02,13,17.30
2016,08,19,02,14,17.20
2016,08,19,02,15,17.20
2016,08,19,02,16,17.20
2016,08,19,02,17,17.20
2016,08,19,02,18,17.20
2016,08,19,02,19,17.10
2016,08,19,02,20,17.10
2016,08,19,02,21,17.10
2016,08,19,02,22,17.10
2016,08,19,02,23,17.10
2016,08,19,02,24,17.10
2016,08,19,02,25,17.10
2016,08,19,02,26,17.10
2016,08,19,02,27,17.10
2016,08,19,02,28,17.10
2016,08,19,02,29,17.10
2016,08,19,02,30,17.20
2016,08,19,02,31,17.20
2016,08,19,02,32,17.20
2016,08,19,02,33,17.20
2016,08,19,02,34,17.30
2016,08,19,02,35,17.30
2016,08,19,02,36,17.30
2016,08,19,02,37,17.30
2016,08,19,02,38,17.40
2016,08,19,02,39,17.40
2016,08,19,02,40,17.40
2016,08,19,02,41,17.40
2016,08,19,02,42,17.40
2016,08,19,02,43,17.40
2016,08,19,02,44,17.40
2016,08,19,02,45,17.40
2016,08,19,02,46,17.40
2016,08,19,02,47,17.40
2016,08,19,02,48,17.30
2016,08,19,02,49,17.30
2016,08,19,02,50,17.30
2016,08,19,02,51,17.20
2016,08,19,02,52,17.20
2016,08,19,02,53,17.20
2016,08,19,02,54,17.30
2016,08,19,02,55,17.30
2016,08,19,02,56,17.30
2016,08,19,02,57,17.30
2016,08,19,02,58,17.40
2016,08,19,02,59,17.40
2016,08,19,03,00,17.40
2016,08,19,03,01,17.40
2016,08,19,03,02,17.30
2016,08,19,03,03,17.30
2016,08,19,03,04,17.30
2016,08,19,03,05,17.30
2016,08,19,03,06,17.30
2016,08,19,03,07,17.30
2016,08,19,03,08,17.20
2016,08,19,03,09,17.20
2016,08,19,03,10,17.20
2016,08,19,03,11,17.20
2016,08,19,03,12,17.20
2016,08,19,03,13,17.20
2016,08,19,03,14,17.10
2016,08,19,03,15,17.10
2016,08,19,03,16,17.10
2016,08,19,03,17,17.10
2016,08,19,03,18,17.10
2016,08,19,03,19,17.10
2016,08,19,03,20,17.10
2016,08,19,03,21,17.10
2016,08,19,03,22,17.00
2016,08,19,03,23,17.00
2016,08,19,03,24,17.00
2016,08,19,03,25,16.90
2016,08,19,03,26,16.90
2016,08,19,03,27,16.80
2016,08,19,03,28,16.80
2016,08,19,03,29,16.80
2016,08,19,03,30,16.70
2016,08,19,03,31,16.70
2016,08,19,03,32,16.70
2016,08,19,03,33,16.80
2016,08,19,03,34,16.80
2016,08,19,03,35,16.90
2016,08,19,03,36,17.00
2016,08,19,03,37,17.10
2016,08,19,03,38,17.10
2016,08,19,03,39,17.10
2016,08,19,03,40,17.20
2016,08,19,03,41,17.20
2016,08,19,03,42,17.20
2016,08,19,03,43,17.20
2016,08,19,03,44,17.10
2016,08,19,03,45,17.10
2016,08,19,03,46,17.10
2016,08,19,03,47,17.00
2016,08,19,03,48,17.00
2016,08,19,03,49,16.90
2016,08,19,03,50,16.90
2016,08,19,03,51,16.80
2016,08,19,03,52,16.80
2016,08,19,03,53,16.80
2016,08,19,03,54,16.80
2016,08,19,03,55,16.70
2016,08,19,03,56,16.70
2016,08,19,03,57,16.70
2016,08,19,03,58,16.60
2016,08,19,03,59,16.50
2016,08,19,04,00,16.50
2016,08,19,04,01,16.40
2016,08,19,04,02,16.30
2016,08,19,04,03,16.30
2016,08,19,04,04,16.30
2016,08,19,04,05,16.20
2016,08,19,04,06,16.20
2016,08,19,04,07,16.20
2016,08,19,04,08,16.20
2016,08,19,04,09,16.20
2016,08,19,04,10,16.20
2016,08,19,04,11,16.20
2016,08,19,04,12,16.20
2016,08,19,04,13,16.20
2016,08,19,04,14,16.10
2016,08,19,04,15,16.10
2016,08,19,04,16,16.10
2016,08,19,04,17,16.10
2016,08,19,04,18,16.00
2016,08,19,04,19,16.00
2016,08,19,04,20,16.10
2016,08,19,04,21,16.10
2016,08,19,04,22,16.10
2016,08,19,04,23,16.20
2016,08,19,04,24,16.20
2016,08,19,04,25,16.20
2016,08,19,04,26,16.20
2016,08,19,04,27,16.10
2016,08,19,04,28,16.10
2016,08,19,04,29,16.20
2016,08,19,04,30,16.20
2016,08,19,04,31,16.20
2016,08,19,04,32,16.20
2016,08,19,04,33,16.20
2016,08,19,04,34,16.10
2016,08,19,04,35,16.10
2016,08,19,04,36,16.10
2016,08,19,04,37,16.20
2016,08,19,04,38,16.20
2016,08,19,04,39,16.20
2016,08,19,04,40,16.20
2016,08,19,04,41,16.20
2016,08,19,04,42,16.30
2016,08,19,04,43,16.30
2016,08,19,04,44,16.30
2016,08,19,04,45,16.30
2016,08,19,04,46,16.30
2016,08,19,04,47,16.40
2016,08,19,04,48,16.50
2016,08,19,04,49,16.50
2016,08,19,04,50,16.50
2016,08,19,04,51,16.60
2016,08,19,04,52,16.60
2016,08,19,04,53,16.50
2016,08,19,04,54,16.50
2016,08,19,04,55,16.40
2016,08,19,04,56,16.40
2016,08,19,04,57,16.30
2016,08,19,04,58,16.30
2016,08,19,04,59,16.30
2016,08,19,05,00,16.20
2016,08,19,05,01,16.10
2016,08,19,05,02,16.00
2016,08,19,05,03,16.00
2016,08,19,05,04,16.00
2016,08,19,05,05,16.00
2016,08,19,05,06,16.00
2016,08,19,05,07,16.00
2016,08,19,05,08,16.00
2016,08,19,05,09,16.00
2016,08,19,05,10,15.90
2016,08,19,05,11,15.90
2016,08,19,05,12,15.90
2016,08,19,05,13,15.90
2016,08,19,05,14,15.90
2016,08,19,05,15,15.80
2016,08,19,05,16,15.80
2016,08,19,05,17,15.80
2016,08,19,05,18,15.70
2016,08,19,05,19,15.70
2016,08,19,05,20,15.70
2016,08,19,05,21,15.60
2016,08,19,05,22,15.60
2016,08,19,05,23,15.60
2016,08,19,05,24,15.50
2016,08,19,05,25,15.60
2016,08,19,05,26,15.60
2016,08,19,05,27,15.60
2016,08,19,05,28,15.70
2016,08,19,05,29,15.70
2016,08,19,05,30,15.70
2016,08,19,05,31,15.70
2016,08,19,05,32,15.70
2016,08,19,05,33,15.70
2016,08,19,05,34,15.70
2016,08,19,05,35,15.60
2016,08,19,05,36,15.60
2016,08,19,05,37,15.60
2016,08,19,05,38,15.60
2016,08,19,05,39,15.50
2016,08,19,05,40,15.50
2016,08,19,05,41,15.50
2016,08,19,05,42,15.50
2016,08,19,05,43,15.40
2016,08,19,05,44,15.40
2016,08,19,05,45,15.40
2016,08,19,05,46,15.40
2016,08,19,05,47,15.40
2016,08,19,05,48,15.40
2016,08,19,05,49,15.40
2016,08,19,05,50,15.50
2016,08,19,05,51,15.50
2016,08,19,05,52,15.50
2016,08,19,05,53,15.50
2016,08,19,05,54,15.60
2016,08,19,05,55,15.60
2016,08,19,05,56,15.60
2016,08,19,05,57,15.60
2016,08,19,05,58,15.60
2016,08,19,05,59,15.60
2016,08,19,06,00,15.60
2016,08,19,06,01,15.60
2016,08,19,06,02,15.60
2016,08,19,06,03,15.60
2016,08,19,06,04,15.60
2016,08,19,06,05,15.60
2016,08,19,06,06,15.60
2016,08,19,06,07,15.60
2016,08,19,06,08,15.60
2016,08,19,06,09,15.60
2016,08,19,06,10,15.60
2016,08,19,06,11,15.50
2016,08,19,06,12,15.50
2016,08,19,06,13,15.50
2016,08,19,06,14,15.50
2016,08,19,06,15,15.50
2016,08,19,06,16,15.50
2016,08,19,06,17,15.50
2016,08,19,06,18,15.40
2016,08,19,06,19,15.40
2016,08,19,06,20,15.40
2016,08,19,06,21,15.30
2016,08,19,06,22,15.30
2016,08,19,06,23,15.20
2016,08,19,06,24,15.20
2016,08,19,06,25,15.20
2016,08,19,06,26,15.10
2016,08,19,06,27,15.10
2016,08,19,06,28,15.10
2016,08,19,06,29,15.00
2016,08,19,06,30,15.00
2016,08,19,06,31,14.90
2016,08,19,06,32,14.90
2016,08,19,06,33,14.90
2016,08,19,06,34,14.80
2016,08,19,06,35,14.80
2016,08,19,06,36,14.80
2016,08,19,06,37,14.80
2016,08,19,06,38,14.80
2016,08,19,06,39,14.80
2016,08,19,06,40,14.80
2016,08,19,06,41,14.80
2016,08,19,06,42,14.80
2016,08,19,06,43,14.80
2016,08,19,06,44,14.80
2016,08,19,06,45,14.70
2016,08,19,06,46,14.70
2016,08,19,06,47,14.70
2016,08,19,06,48,14.70
2016,08,19,06,49,14.70
2016,08,19,06,50,14.70
2016,08,19,06,51,14.70
2016,08,19,06,52,14.70
2016,08,19,06,53,14.70
2016,08,19,06,54,14.70
2016,08,19,06,55,14.70
2016,08,19,06,56,14.70
2016,08,19,06,57,14.70
2016,08,19,06,58,14.70
2016,08,19,06,59,14.70
2016,08,19,07,00,14.70
2016,08,19,07,01,14.70
2016,08,19,07,02,14.70
2016,08,19,07,03,14.70
2016,08,19,07,04,14.70
2016,08,19,07,05,14.70
2016,08,19,07,06,14.70
2016,08,19,07,07,14.70
2016,08,19,07,08,14.70
2016,08,19,07,09,14.80
2016,08,19,07,10,14.80
2016,08,19,07,11,14.80
2016,08,19,07,12,14.80
2016,08,19,07,13,14.80
2016,08,19,07,14,14.80
2016,08,19,07,15,14.80
2016,08,19,07,16,14.80
2016,08,19,07,17,14.80
2016,08,19,07,18,14.80
2016,08,19,07,19,14.80
2016,08,19,07,20,14.70
2016,08,19,07,21,14.70
2016,08,19,07,22,14.70
2016,08,19,07,23,14.70
2016,08,19,07,24,14.80
2016,08,19,07,25,14.80
2016,08,19,07,26,14.80
2016,08,19,07,27,14.80
2016,08,19,07,28,14.80
2016,08,19,07,29,14.90
2016,08,19,07,30,14.90
2016,08,19,07,31,14.90
2016,08,19,07,32,15.00
2016,08,19,07,33,15.00
2016,08,19,07,34,15.10
2016,08,19,07,35,15.10
2016,08,19,07,36,15.10
2016,08,19,07,37,15.20
2016,08,19,07,38,15.20
2016,08,19,07,39,15.30
2016,08,19,07,40,15.40
2016,08,19,07,41,15.50
2016,08,19,07,42,15.60
2016,08,19,07,43,15.70
2016,08,19,07,44,15.80
2016,08,19,07,45,15.90
2016,08,19,07,46,16.00
2016,08,19,07,47,16.10
2016,08,19,07,48,16.20
2016,08,19,07,49,16.30
2016,08,19,07,50,16.40
2016,08,19,07,51,16.50
2016,08,19,07,52,16.70
2016,08,19,07,53,16.80
2016,08,19,07,54,16.90
2016,08,19,07,55,17.00
2016,08,19,07,56,17.10
2016,08,19,07,57,17.20
2016,08,19,07,58,17.30
2016,08,19,07,59,17.40
2016,08,19,08,00,17.40
2016,08,19,08,01,17.50
2016,08,19,08,02,17.60
2016,08,19,08,03,17.70
2016,08,19,08,04,17.80
2016,08,19,08,05,18.00
2016,08,19,08,06,18.10
2016,08,19,08,07,18.20
2016,08,19,08,08,18.30
2016,08,19,08,09,18.40
2016,08,19,08,10,18.40
2016,08,19,08,11,18.60
2016,08,19,08,12,18.70
2016,08,19,08,13,18.80
2016,08,19,08,14,18.80
2016,08,19,08,15,18.90
2016,08,19,08,16,19.00
2016,08,19,08,17,19.10
2016,08,19,08,18,19.20
2016,08,19,08,19,19.20
2016,08,19,08,20,19.30
2016,08,19,08,21,19.30
2016,08,19,08,22,19.40
2016,08,19,08,23,19.40
2016,08,19,08,24,19.50
2016,08,19,08,25,19.50
2016,08,19,08,26,19.60
2016,08,19,08,27,19.60
2016,08,19,08,28,19.70
2016,08,19,08,29,19.80
2016,08,19,08,30,19.90
2016,08,19,08,31,20.00
2016,08,19,08,32,20.00
2016,08,19,08,33,20.10
2016,08,19,08,34,20.20
2016,08,19,08,35,20.20
2016,08,19,08,36,20.30
2016,08,19,08,37,20.30
2016,08,19,08,38,20.30
2016,08,19,08,39,20.30
2016,08,19,08,40,20.40
2016,08,19,08,41,20.40
2016,08,19,08,42,20.50
2016,08,19,08,43,20.60
2016,08,19,08,44,20.60
2016,08,19,08,45,20.60
2016,08,19,08,46,20.50
2016,08,19,08,47,20.50
2016,08,19,08,48,20.40
2016,08,19,08,49,20.40
2016,08,19,08,50,20.40
2016,08,19,08,51,20.40
2016,08,19,08,52,20.40
2016,08,19,08,53,20.50
2016,08,19,08,54,20.60
2016,08,19,08,55,20.70
2016,08,19,08,56,20.80
2016,08,19,08,57,20.90
2016,08,19,08,58,20.90
2016,08,19,08,59,21.00
2016,08,19,09,00,21.00
2016,08,19,09,01,21.10
2016,08,19,09,02,21.10
2016,08,19,09,03,21.20
2016,08,19,09,04,21.30
2016,08,19,09,05,21.40
2016,08,19,09,06,21.50
2016,08,19,09,07,21.60
2016,08,19,09,08,21.70
2016,08,19,09,09,21.60
2016,08,19,09,10,21.60
2016,08,19,09,11,21.70
2016,08,19,09,12,21.80
2016,08,19,09,13,21.80
2016,08,19,09,14,22.00
2016,08,19,09,15,22.10
2016,08,19,09,16,22.10
2016,08,19,09,17,22.20
2016,08,19,09,18,22.30
2016,08,19,09,19,22.30
2016,08,19,09,20,22.40
2016,08,19,09,21,22.50
2016,08,19,09,22,22.50
2016,08,19,09,23,22.60
2016,08,19,09,24,22.60
2016,08,19,09,25,22.70
2016,08,19,09,26,22.70
2016,08,19,09,27,22.80
2016,08,19,09,28,22.90
2016,08,19,09,29,23.00
2016,08,19,09,30,23.10
2016,08,19,09,31,23.20
2016,08,19,09,32,23.30
2016,08,19,09,33,23.30
2016,08,19,09,34,23.20
2016,08,19,09,35,23.10
2016,08,19,09,36,23.00
2016,08,19,09,37,22.80
2016,08,19,09,38,22.70
2016,08,19,09,39,22.60
2016,08,19,09,40,22.60
2016,08,19,09,41,22.60
2016,08,19,09,42,22.60
2016,08,19,09,43,22.60
2016,08,19,09,44,22.70
2016,08,19,09,45,22.80
2016,08,19,09,46,23.00
2016,08,19,09,47,23.10
2016,08,19,09,48,23.30
2016,08,19,09,49,23.40
2016,08,19,09,50,23.60
2016,08,19,09,51,23.70
2016,08,19,09,52,23.90
2016,08,19,09,53,24.00
2016,08,19,09,54,24.10
2016,08,19,09,55,24.20
2016,08,19,09,56,24.30
2016,08,19,09,57,24.40
2016,08,19,09,58,24.40
2016,08,19,09,59,24.50
2016,08,19,10,00,24.50
2016,08,19,10,01,24.60
2016,08,19,10,02,24.70
2016,08,19,10,03,24.80
2016,08,19,10,04,24.90
2016,08,19,10,05,25.00
2016,08,19,10,06,25.00
2016,08,19,10,07,25.10
2016,08,19,10,08,25.20
2016,08,19,10,09,25.30
2016,08,19,10,10,25.40
2016,08,19,10,11,25.40
2016,08,19,10,12,25.50
2016,08,19,10,13,25.50
2016,08,19,10,14,25.50
2016,08,19,10,15,25.50
2016,08,19,10,16,25.50
2016,08,19,10,17,25.50
2016,08,19,10,18,25.50
2016,08,19,10,19,25.60
2016,08,19,10,20,25.60
2016,08,19,10,21,25.70
2016,08,19,10,22,25.70
2016,08,19,10,23,25.80
2016,08,19,10,24,25.90
2016,08,19,10,25,26.00
2016,08,19,10,26,26.00
2016,08,19,10,27,26.10
2016,08,19,10,28,26.10
2016,08,19,10,29,26.10
2016,08,19,10,30,26.10
2016,08,19,10,31,26.20
2016,08,19,10,32,26.20
2016,08,19,10,33,26.30
2016,08,19,10,34,26.30
2016,08,19,10,35,26.40
2016,08,19,10,36,26.60
2016,08,19,10,37,26.70
2016,08,19,10,38,26.80
2016,08,19,10,39,26.90
2016,08,19,10,40,27.00
2016,08,19,10,41,27.10
2016,08,19,10,42,27.10
2016,08,19,10,43,27.10
2016,08,19,10,44,27.20
2016,08,19,10,45,27.20
2016,08,19,10,46,27.20
2016,08,19,10,47,27.20
2016,08,19,10,48,27.20
2016,08,19,10,49,27.20
2016,08,19,10,50,27.20
2016,08,19,10,51,27.30
2016,08,19,10,52,27.30
2016,08,19,10,53,27.30
2016,08,19,10,54,27.40
2016,08,19,10,55,27.40
2016,08,19,10,56,27.50
2016,08,19,10,57,27.70
2016,08,19,10,58,27.80
2016,08,19,10,59,27.90
2016,08,19,11,00,28.10
2016,08,19,11,01,28.20
2016,08,19,11,02,28.30
2016,08,19,11,03,28.40
2016,08,19,11,04,28.50
2016,08,19,11,05,28.60
2016,08,19,11,06,28.80
2016,08,19,11,07,28.90
2016,08,19,11,08,29.10
2016,08,19,11,09,29.20
2016,08,19,11,10,29.40
2016,08,19,11,11,29.50
2016,08,19,11,12,29.60
2016,08,19,11,13,29.60
2016,08,19,11,14,29.60
2016,08,19,11,15,29.60
2016,08,19,11,16,29.50
2016,08,19,11,17,29.50
2016,08,19,11,18,29.40
2016,08,19,11,19,29.30
2016,08,19,11,20,29.20
2016,08,19,11,21,29.20
2016,08,19,11,22,29.10
2016,08,19,11,23,29.10
2016,08,19,11,24,29.10
2016,08,19,11,25,29.20
2016,08,19,11,26,29.30
2016,08,19,11,27,29.50
2016,08,19,11,28,29.60
2016,08,19,11,29,29.80
2016,08,19,11,30,29.90
2016,08,19,11,31,30.00
2016,08,19,11,32,30.20
2016,08,19,11,33,30.30
2016,08,19,11,34,30.50
2016,08,19,11,35,30.60
2016,08,19,11,36,30.70
2016,08,19,11,37,30.80
2016,08,19,11,38,30.80
2016,08,19,11,39,30.80
2016,08,19,11,40,30.90
2016,08,19,11,41,31.00
2016,08,19,11,42,31.00
2016,08,19,11,43,31.10
2016,08,19,11,44,31.10
2016,08,19,11,45,31.20
2016,08,19,11,46,31.20
2016,08,19,11,47,31.30
2016,08,19,11,48,31.30
2016,08,19,11,49,31.30
2016,08,19,11,50,31.30
2016,08,19,11,51,31.30
2016,08,19,11,52,31.20
2016,08,19,11,53,31.10
2016,08,19,11,54,31.10
2016,08,19,11,55,31.00
2016,08,19,11,56,30.90
2016,08,19,11,57,30.90
2016,08,19,11,58,30.90
2016,08,19,11,59,31.00
2016,08,19,12,00,31.00
2016,08,19,12,01,31.10
2016,08,19,12,02,31.10
2016,08,19,12,03,31.20
2016,08,19,12,04,31.20
2016,08,19,12,05,31.20
2016,08,19,12,06,31.30
2016,08,19,12,07,31.30
2016,08,19,12,08,31.30
2016,08,19,12,09,31.30
2016,08,19,12,10,31.40
2016,08,19,12,11,31.40
2016,08,19,12,12,31.40
2016,08,19,12,13,31.50
2016,08,19,12,14,31.50
2016,08,19,12,15,31.60
2016,08,19,12,16,31.80
2016,08,19,12,17,31.90
2016,08,19,12,18,32.00
2016,08,19,12,19,32.10
2016,08,19,12,20,32.10
2016,08,19,12,21,32.10
2016,08,19,12,22,32.00
2016,08,19,12,23,32.00
2016,08,19,12,24,31.90
2016,08,19,12,25,32.00
2016,08,19,12,26,32.00
2016,08,19,12,27,32.10
2016,08,19,12,28,32.10
2016,08,19,12,29,32.10
2016,08,19,12,30,32.20
2016,08,19,12,31,32.40
2016,08,19,12,32,32.60
2016,08,19,12,33,32.80
2016,08,19,12,34,32.90
2016,08,19,12,35,33.10
2016,08,19,12,36,33.20
2016,08,19,12,37,33.30
2016,08,19,12,38,33.40
2016,08,19,12,39,33.40
2016,08,19,12,40,33.50
2016,08,19,12,41,33.50
2016,08,19,12,42,33.60
2016,08,19,12,43,33.60
2016,08,19,12,44,33.60
2016,08,19,12,45,33.70
2016,08,19,12,46,33.80
2016,08,19,12,47,33.90
2016,08,19,12,48,33.90
2016,08,19,12,49,33.90
2016,08,19,12,50,33.90
2016,08,19,12,51,33.80
2016,08,19,12,52,33.80
2016,08,19,12,53,33.60
2016,08,19,12,54,33.50
2016,08,19,12,55,33.40
2016,08,19,12,56,33.30
2016,08,19,12,57,33.30
2016,08,19,12,58,33.20
2016,08,19,12,59,33.20
2016,08,19,13,00,33.20
2016,08,19,13,01,33.30
2016,08,19,13,02,33.40
2016,08,19,13,03,33.60
2016,08,19,13,04,33.70
2016,08,19,13,05,33.80
2016,08,19,13,06,33.90
2016,08,19,13,07,34.10
2016,08,19,13,08,34.20
2016,08,19,13,09,34.30
2016,08,19,13,10,34.30
2016,08,19,13,11,34.40
2016,08,19,13,12,34.50
2016,08,19,13,13,34.50
2016,08,19,13,14,34.60
2016,08,19,13,15,34.70
2016,08,19,13,16,34.80
2016,08,19,13,17,35.00
2016,08,19,13,18,35.00
2016,08,19,13,19,35.00
2016,08,19,13,20,34.90
2016,08,19,13,21,34.80
2016,08,19,13,22,34.70
2016,08,19,13,23,34.60
2016,08,19,13,24,34.60
2016,08,19,13,25,34.50
2016,08,19,13,26,34.50
2016,08,19,13,27,34.50
2016,08,19,13,28,34.50
2016,08,19,13,29,34.60
2016,08,19,13,30,34.70
2016,08,19,13,31,34.80
2016,08,19,13,32,34.80
2016,08,19,13,33,34.90
2016,08,19,13,34,34.90
2016,08,19,13,35,34.90
2016,08,19,13,36,34.90
2016,08,19,13,37,34.80
2016,08,19,13,38,34.70
2016,08,19,13,39,34.50
2016,08,19,13,40,34.30
2016,08,19,13,41,34.10
2016,08,19,13,42,33.90
2016,08,19,13,43,33.80
2016,08,19,13,44,33.70
2016,08,19,13,45,33.70
2016,08,19,13,46,33.60
2016,08,19,13,47,33.50
2016,08,19,13,48,33.30
2016,08,19,13,49,33.20
2016,08,19,13,50,33.00
2016,08,19,13,51,32.80
2016,08,19,13,52,32.70
2016,08,19,13,53,32.70
2016,08,19,13,54,32.60
2016,08,19,13,55,32.50
2016,08,19,13,56,32.30
2016,08,19,13,57,32.10
2016,08,19,13,58,31.90
2016,08,19,13,59,31.80
2016,08,19,14,00,31.60
2016,08,19,14,01,31.60
2016,08,19,14,02,31.60
2016,08,19,14,03,31.50
2016,08,19,14,04,31.50
2016,08,19,14,05,31.50
2016,08,19,14,06,31.40
2016,08,19,14,07,31.40
2016,08,19,14,08,31.50
2016,08,19,14,09,31.50
2016,08,19,14,10,31.40
2016,08,19,14,11,31.40
2016,08,19,14,12,31.40
2016,08,19,14,13,31.40
2016,08,19,14,14,31.40
2016,08,19,14,15,31.40
2016,08,19,14,16,31.40
2016,08,19,14,17,31.40
2016,08,19,14,18,31.30
2016,08,19,14,19,31.30
2016,08,19,14,20,31.30
2016,08,19,14,21,31.20
2016,08,19,14,22,31.20
2016,08,19,14,23,31.20
2016,08,19,14,24,31.20
2016,08,19,14,25,31.20
2016,08,19,14,26,31.20
2016,08,19,14,27,31.20
2016,08,19,14,28,31.20
2016,08,19,14,29,31.20
2016,08,19,14,30,31.20
2016,08,19,14,31,31.20
2016,08,19,14,32,31.10
2016,08,19,14,33,31.10
2016,08,19,14,34,31.00
2016,08,19,14,35,30.90
2016,08,19,14,36,30.90
2016,08,19,14,37,30.90
2016,08,19,14,38,30.90
2016,08,19,14,39,30.90
2016,08,19,14,40,30.80
2016,08,19,14,41,30.80
2016,08,19,14,42,30.80
2016,08,19,14,43,30.90
2016,08,19,14,44,30.90
2016,08,19,14,45,30.90
2016,08,19,14,46,30.90
2016,08,19,14,47,30.90
2016,08,19,14,48,30.90
2016,08,19,14,49,30.90
2016,08,19,14,50,30.90
2016,08,19,14,51,30.90
2016,08,19,14,52,30.90
2016,08,19,14,53,30.90
2016,08,19,14,54,31.00
2016,08,19,14,55,31.00
2016,08,19,14,56,31.00
2016,08,19,14,57,31.00
2016,08,19,14,58,31.00
2016,08,19,14,59,31.00
2016,08,19,15,00,30.90
2016,08,19,15,01,30.90
2016,08,19,15,02,30.80
2016,08,19,15,03,30.80
2016,08,19,15,04,30.80
2016,08,19,15,05,30.70
2016,08,19,15,06,30.70
2016,08,19,15,07,30.70
2016,08,19,15,08,30.80
2016,08,19,15,09,30.80
2016,08,19,15,10,30.80
2016,08,19,15,11,30.70
2016,08,19,15,12,30.70
2016,08,19,15,13,30.70
2016,08,19,15,14,30.60
2016,08,19,15,15,30.60
2016,08,19,15,16,30.60
2016,08,19,15,17,30.60
2016,08,19,15,18,30.60
2016,08,19,15,19,30.60
2016,08,19,15,20,30.60
2016,08,19,15,21,30.60
2016,08,19,15,22,30.60
2016,08,19,15,23,30.60
2016,08,19,15,24,30.60
2016,08,19,15,25,30.50
2016,08,19,15,26,30.50
2016,08,19,15,27,30.50
2016,08,19,15,28,30.40
2016,08,19,15,29,30.40
2016,08,19,15,30,30.50
2016,08,19,15,31,30.50
2016,08,19,15,32,30.50
2016,08,19,15,33,30.40
2016,08,19,15,34,30.50
2016,08,19,15,35,30.40
2016,08,19,15,36,30.40
2016,08,19,15,37,30.40
2016,08,19,15,38,30.30
2016,08,19,15,39,30.30
2016,08,19,15,40,30.30
2016,08,19,15,41,30.30
2016,08,19,15,42,30.30
2016,08,19,15,43,30.30
2016,08,19,15,44,30.30
2016,08,19,15,45,30.30
2016,08,19,15,46,30.20
2016,08,19,15,47,30.20
2016,08,19,15,48,30.20
2016,08,19,15,49,30.20
2016,08,19,15,50,30.10
2016,08,19,15,51,30.20
2016,08,19,15,52,30.20
2016,08,19,15,53,30.20
2016,08,19,15,54,30.20
2016,08,19,15,55,30.30
2016,08,19,15,56,30.30
2016,08,19,15,57,30.30
2016,08,19,15,58,30.40
2016,08,19,15,59,30.40
2016,08,19,16,00,30.50
2016,08,19,16,01,30.50
2016,08,19,16,02,30.50
2016,08,19,16,03,30.50
2016,08,19,16,04,30.50
2016,08,19,16,05,30.40
2016,08,19,16,06,30.40
2016,08,19,16,07,30.40
2016,08,19,16,08,30.30
2016,08,19,16,09,30.30
2016,08,19,16,10,30.30
2016,08,19,16,11,30.30
2016,08,19,16,12,30.30
2016,08,19,16,13,30.30
2016,08,19,16,14,30.30
2016,08,19,16,15,30.30
2016,08,19,16,16,30.30
2016,08,19,16,17,30.30
2016,08,19,16,18,30.20
2016,08,19,16,19,30.20
2016,08,19,16,20,30.10
2016,08,19,16,21,30.10
2016,08,19,16,22,30.10
2016,08,19,16,23,30.10
2016,08,19,16,24,30.00
2016,08,19,16,25,30.00
2016,08,19,16,26,29.90
2016,08,19,16,27,29.90
2016,08,19,16,28,30.00
2016,08,19,16,29,30.00
2016,08,19,16,30,30.00
2016,08,19,16,31,30.00
2016,08,19,16,32,29.90
2016,08,19,16,33,29.80
2016,08,19,16,34,29.80
2016,08,19,16,35,29.80
2016,08,19,16,36,29.70
2016,08,19,16,37,29.70
2016,08,19,16,38,29.60
2016,08,19,16,39,29.60
2016,08,19,16,40,29.50
2016,08,19,16,41,29.50
2016,08,19,16,42,29.50
2016,08,19,16,43,29.60
2016,08,19,16,44,29.60
2016,08,19,16,45,29.70
2016,08,19,16,46,29.70
2016,08,19,16,47,29.60
2016,08,19,16,48,29.60
2016,08,19,16,49,29.50
2016,08,19,16,50,29.50
2016,08,19,16,51,29.50
2016,08,19,16,52,29.60
2016,08,19,16,53,29.70
2016,08,19,16,54,29.70
2016,08,19,16,55,29.70
2016,08,19,16,56,29.70
2016,08,19,16,57,29.70
2016,08,19,16,58,29.70
2016,08,19,16,59,29.70
2016,08,19,17,00,29.80
2016,08,19,17,01,29.80
2016,08,19,17,02,29.80
2016,08,19,17,03,29.80
2016,08,19,17,04,29.90
2016,08,19,17,05,29.80
2016,08,19,17,06,29.80
2016,08,19,17,07,29.80
2016,08,19,17,08,29.80
2016,08,19,17,09,29.80
2016,08,19,17,10,29.80
2016,08,19,17,11,29.80
2016,08,19,17,12,29.90
2016,08,19,17,13,29.90
2016,08,19,17,14,29.90
2016,08,19,17,15,29.90
2016,08,19,17,16,29.90
2016,08,19,17,17,29.90
2016,08,19,17,18,29.90
2016,08,19,17,19,30.00